Regional Weather Roundup
Issued by NWS

Home | Current Version | Previous Version | Graphics & Text | Print | Product List | Glossary On
Versions: 1 2 3 4 5 6 7 8 9 10 11 12 13 14 15 16 17 18 19 20 21 22 23 24 25 26 27 28 29 30 31 32 33 34 35 36 37 38 39 40 41 42 43 44 45 46 47 48 49 50
000
ASUS43 KLSX 230907
RWRMO

WEATHER SUMMARY FOR MISSOURI
NATIONAL WEATHER SERVICE SPRINGFIELD MO
400 AM CDT SAT AUG 23 2014

NOTE: "FAIR" INDICATES FEW OR NO CLOUDS BELOW 12,000 FEET WITH NO
       SIGNIFICANT WEATHER AND/OR OBSTRUCTIONS TO VISIBILITY.
       CURRENT SKY AND/OR WEATHER CONDITIONS ARE NOT AVAILABLE FOR
       CHILLICOTHE AND FARMINGTON.

MOZ001>031-035>038-043-044-053-054-231000-
...NORTHERN AND WESTERN MISSOURI...

CITY           SKY/WX    TMP DP  RH WIND       PRES   REMARKS
KANSAS CTY INT PTCLDY    78  71  79 S10       29.89F
KANSAS C DTWN  MOCLDY    81  71  71 S9        29.88F
LEE`S SUMMIT   CLEAR     78  70  76 S9        29.91F
ST JOSEPH      CLOUDY    78  74  87 S9        29.87F
CHILLICOTHE      N/A     79  76  90 S6        29.90F
KIRKSVILLE     PTCLDY    78  75  90 E8        29.94F

$$
MOZ066>068-077>081-088>096-101>105-231000-
...SOUTHWEST MISSOURI...

CITY           SKY/WX    TMP DP  RH WIND       PRES   REMARKS
SPRINGFIELD    CLEAR     77  72  84 S7        29.99S
JOPLIN         CLEAR     80  69  69 S14       29.96S

$$
MOZ032>034-039>042-045>050-055>058-069>072-231000-
...CENTRAL MISSOURI...

CITY           SKY/WX    TMP DP  RH WIND       PRES   REMARKS
COLUMBIA       CLEAR     74  74 100 S5        29.94S
JEFFERSON CITY CLEAR     76  74  93 SE3       29.93S
ROLLA          CLEAR     74  69  85 S8        29.97S
SEDALIA        CLEAR     78  71  79 S7        29.94F
WHITEMAN AFB   CLEAR     74  68  81 S8        29.92S
OSAGE BEACH    CLEAR     73  70  88 CALM      29.96S

$$
MOZ051-052-059>065-231000-
...EAST CENTRAL MISSOURI...

CITY           SKY/WX    TMP DP  RH WIND       PRES   REMARKS
ST LOUIS INTL  MOCLDY    81  77  88 CALM      29.93S
SPIRIT OF STL  PTCLDY    76  74  93 CALM      29.91F
ST CHARLES     CLEAR     76  75  97 E3        29.91S FOG

$$
MOZ072>076-082>087-097>100-106>115-231000-
...SOUTH CENTRAL AND SOUTHEAST MISSOURI...

CITY           SKY/WX    TMP DP  RH WIND       PRES   REMARKS
CAPE GIRARDEAU CLEAR     77  74  90 SW5       29.94F
FARMINGTON     CLEAR     75  72  88 S6        29.99S
POPLAR BLUFF   PTCLDY    77  72  84 SW5       29.94F
WEST PLAINS    CLEAR     76  71  85 W3        30.02S

$$


USA.gov is the U.S. government's official web portal to all federal, state and local government web resources and services.